Location: Scenic
(43.7797°N, 102.5549°W)
Time: 21:16:43
(UTC-07:00)

Amateur Radio Satellites - All Passes

Search period start: 21 January 2018 20:46
Search period end: 22 January 2018 20:46
Location: Scenic, 43.7797°N, 102.5549°W

Satellite Date Start Highest point End Downlink Frequencies (MHz)
Time Altitude Azimuth
EO-88 21 Jan 20:52:33 20:56:09 64° 75° (ENE) 20:59:47 145.990 - 145.960
ESTCUBE 1 21 Jan 20:56:53 20:58:01 11° 59° (ENE) 20:59:08 437.505/2401.250
nSIGHT-1 21 Jan 21:04:31 21:07:34 44° 335° (NNW) 21:10:37 .
AO-85 21 Jan 21:17:09 21:21:18 26° 247° (WSW) 21:25:38 145.980
ISS 21 Jan 21:21:47 21:24:56 46° 334° (NNW) 21:28:07 437.550
TIGRISAT 21 Jan 21:28:51 21:33:31 58° 100° (E) 21:38:07 435.000
PRISM 21 Jan 21:38:20 21:40:48 16° 92° (E) 21:43:16 437.425
UNISAT 6 21 Jan 21:44:25 21:49:09 90° 343° (NNW) 21:53:51 437.425
DELFI C3 21 Jan 21:45:54 21:48:00 14° 269° (W) 21:50:05 145.870
YUBILEINY 21 Jan 21:56:17 22:04:19 41° 86° (E) 22:12:20 435.215
FO-29 21 Jan 22:08:02 22:09:36 11° 305° (NW) 22:11:10 435.910
LO-87 21 Jan 22:08:28 22:11:59 66° 75° (ENE) 22:15:34 145.935 - 145.965
SPROUT 21 Jan 22:15:03 22:17:37 16° 63° (ENE) 22:20:11 437.525
NO-84 21 Jan 22:20:03 22:22:34 28° 30° (NNE) 22:25:08 435.350 FM
VELOX 1 21 Jan 22:27:11 22:29:06 13° 60° (ENE) 22:30:59 145.980
ESTCUBE 1 21 Jan 22:29:33 22:34:05 89° 98° (E) 22:38:38 437.505/2401.250
nSIGHT-1 21 Jan 22:41:51 22:44:17 20° 355° (N) 22:46:43 .
O/OREOS (USA 219) 21 Jan 22:43:58 22:45:15 11° 97° (E) 22:46:31 437.305
DUCHIFAT 1 21 Jan 22:53:36 22:55:17 12° 89° (E) 22:56:58 145.980
EO-79 21 Jan 22:55:16 22:58:07 17° 92° (E) 23:00:56 145.935-145.965
ISS 21 Jan 22:59:25 23:01:59 21° 355° (N) 23:04:32 437.550
TIGRISAT 21 Jan 23:06:39 23:09:44 17° 297° (WNW) 23:12:47 435.000
PRISM 21 Jan 23:12:24 23:16:17 45° 288° (WNW) 23:20:10 437.425
AIST 2D 21 Jan 23:12:45 23:16:14 81° 281° (W) 23:19:40 435.315
UNISAT 6 21 Jan 23:23:28 23:25:06 12° 301° (WNW) 23:26:45 437.425
POLYITAN 1 21 Jan 23:29:40 23:33:43 39° 98° (E) 23:37:43 437.675
NANOSAT C BR1 21 Jan 23:44:06 23:48:16 50° 99° (E) 23:52:24 145.865
SPROUT 21 Jan 23:48:55 23:53:04 53° 260° (W) 23:57:15 437.525
BUGSAT 1 21 Jan 23:50:41 23:52:10 12° 89° (E) 23:53:39 437.445
YUBILEINY 21 Jan 23:52:35 00:00:59 47° 287° (WNW) 00:09:24 435.215
NO-84 21 Jan 23:57:12 23:59:40 26° 227° (SW) 00:02:13 435.350 FM
QB50P2 21 Jan 23:59:19 00:03:38 86° 282° (WNW) 00:07:54 145.880/145.840
VELOX 1 22 Jan 00:00:34 00:04:56 73° 258° (WSW) 00:09:19 145.980
UKube-1 22 Jan 00:00:52 00:03:19 15° 62° (ENE) 00:05:45 .
Oscar 19 22 Jan 00:05:25 00:07:24 12° 88° (E) 00:09:22 437.125/150
DX 1 22 Jan 00:13:36 00:17:24 31° 68° (ENE) 00:21:15 434.975-435.025
nSIGHT-1 22 Jan 00:18:28 00:21:10 25° 15° (NNE) 00:23:53 .
O/OREOS (USA 219) 22 Jan 00:19:29 00:23:59 75° 294° (WNW) 00:28:29 437.305
DUCHIFAT 1 22 Jan 00:27:08 00:31:21 63° 286° (WNW) 00:35:32 145.980
EO-79 22 Jan 00:29:59 00:34:05 45° 289° (WNW) 00:38:08 145.935-145.965
ISS 22 Jan 00:36:22 00:39:11 26° 15° (NNE) 00:42:00 437.550
50 SAT 22 Jan 00:47:28 00:50:30 61° 75° (ENE) 00:53:33 437.505
POLYITAN 1 22 Jan 01:06:02 01:09:13 20° 295° (WNW) 01:12:23 437.675
AO-91 22 Jan 01:06:44 01:11:11 56° 101° (E) 01:16:04 145.960
NANOSAT C BR1 22 Jan 01:20:52 01:23:34 17° 297° (WNW) 01:26:16 145.865
BUGSAT 1 22 Jan 01:23:43 01:27:56 66° 286° (WNW) 01:32:08 437.445
UKube-1 22 Jan 01:34:38 01:38:50 58° 258° (WSW) 01:43:06 .
Gurwin Techsat 1B 22 Jan 01:37:42 01:43:01 67° 102° (ESE) 01:48:17 435.225
Oscar 19 22 Jan 01:42:10 01:47:22 85° 285° (WNW) 01:52:31 437.125/150
ITUPSAT 1 22 Jan 01:45:36 01:49:48 32° 67° (ENE) 01:54:01 437.325
DX 1 22 Jan 01:50:02 01:53:36 25° 265° (W) 01:57:11 434.975-435.025
nSIGHT-1 22 Jan 01:54:26 01:57:36 80° 215° (SW) 02:00:46 .
O/OREOS (USA 219) 22 Jan 02:03:17 02:04:12 11° 314° (NW) 02:05:07 437.305
MOZHAYETS 4 22 Jan 02:04:12 02:08:49 79° 76° (ENE) 02:13:29
CUBESAT XI-V 22 Jan 02:11:31 02:15:21 26° 66° (ENE) 02:19:11 437.345
ISS 22 Jan 02:12:40 02:15:57 81° 213° (SSW) 02:19:13 437.550
AO-7 22 Jan 02:18:06 02:24:57 27° 94° (E) 02:31:43 .
BEESAT 22 Jan 02:23:45 02:28:29 75° 74° (ENE) 02:33:17 436.000
AO-91 22 Jan 02:44:19 02:47:18 18° 295° (WNW) 02:50:28 145.960
ITAMSAT 1 22 Jan 02:51:40 02:55:49 24° 94° (E) 02:59:57 435.822/435.867
Gurwin Techsat 1B 22 Jan 03:18:51 03:22:25 18° 300° (WNW) 03:25:58 435.225
ITUPSAT 1 22 Jan 03:23:23 03:27:35 30° 264° (W) 03:31:48 437.325
Oscar 19 22 Jan 03:23:43 03:25:52 13° 304° (WNW) 03:28:01 437.125/150
KKS-1 22 Jan 03:25:03 03:28:27 22° 65° (ENE) 03:31:52 437.445
nSIGHT-1 22 Jan 03:32:55 03:33:16 10° 230° (SW) 03:33:36 .
STARS 22 Jan 03:38:51 03:40:46 13° 60° (ENE) 03:42:43 437.465
MOZHAYETS 4 22 Jan 03:45:11 03:46:32 11° 272° (W) 03:47:53
FALCONSAT 3 22 Jan 03:47:46 03:50:13 17° 166° (SSE) 03:52:39 435.103
CUBESAT XI-V 22 Jan 03:48:13 03:52:32 36° 263° (W) 03:56:52 437.345
ISS 22 Jan 03:51:09 03:51:55 11° 230° (SW) 03:52:40 437.550
DOVE 4 22 Jan 04:01:15 04:05:06 29° 96° (E) 04:09:06 437.250
BEESAT 22 Jan 04:04:48 04:06:48 12° 271° (W) 04:08:47 436.000
AO-7 22 Jan 04:10:01 04:18:20 71° 293° (WNW) 04:26:36 .
ITAMSAT 1 22 Jan 04:30:32 04:35:29 46° 291° (WNW) 04:40:25 435.822/435.867
SO-50 22 Jan 04:46:35 04:50:56 58° 120° (ESE) 04:55:23 436.795
M-CUBED/EXP-1 PRIME 22 Jan 04:51:05 04:54:22 52° 106° (ESE) 04:57:32 437.505
XW-2B 22 Jan 04:52:09 04:53:38 12° 90° (E) 04:55:05 145.730 - 145.750
KKS-1 22 Jan 05:00:41 05:04:46 38° 262° (W) 05:08:55 437.445
STARS 22 Jan 05:12:11 05:16:31 72° 257° (WSW) 05:20:54 437.465
RS-15 22 Jan 05:18:26 05:22:29 12° 92° (E) 05:26:30 29.354- 29.394
LilacSat-2 22 Jan 05:20:39 05:23:59 29° 96° (E) 05:27:17 437.200
XW-2C 22 Jan 05:21:06 05:24:21 27° 96° (E) 05:27:33 145.795 - 145.815
FALCONSAT 3 22 Jan 05:25:45 05:28:39 22° 182° (S) 05:31:32 435.103
DOVE 4 22 Jan 05:39:01 05:42:44 28° 291° (WNW) 05:46:36 437.250
STRAND 1 22 Jan 05:41:25 05:45:59 35° 67° (ENE) 05:50:35 437.568
KAITUO 1B 22 Jan 05:51:32 05:55:05 43° 99° (E) 05:58:35 145.475/437.950
XW-2F 22 Jan 05:55:42 05:59:25 67° 100° (E) 06:03:06 145.980 - 146.000
NUDT-PHONESAT 22 Jan 05:59:49 06:03:25 51° 100° (E) 06:06:58 437.300
AO-7 22 Jan 06:04:26 06:09:40 19° 314° (NW) 06:14:54 .
XW-2D 22 Jan 06:06:40 06:10:26 78° 282° (WNW) 06:14:09 145.860 - 145.880
SEEDS 22 Jan 06:10:31 06:13:21 18° 92° (E) 06:16:08 437.485
CUTE-I 22 Jan 06:13:23 06:18:44 73° 103° (ESE) 06:24:03 437.470
XW-2B 22 Jan 06:24:26 06:28:05 49° 287° (WNW) 06:31:41 145.730 - 145.750
CUTE 1.7 + AOD 2 22 Jan 06:25:05 06:29:05 42° 98° (E) 06:33:04 437.475
M-CUBED/EXP-1 PRIME 22 Jan 06:27:44 06:28:18 10° 304° (NW) 06:28:52 437.505
SO-50 22 Jan 06:28:14 06:31:44 22° 320° (NW) 06:35:19 436.795
HO-68 22 Jan 06:30:43 06:37:40 51° 100° (E) 06:44:34 435.675
FO-29 22 Jan 06:32:39 06:39:05 50° 70° (ENE) 06:44:48 435.910
CUBEBUG 2 22 Jan 06:51:59 06:56:41 56° 100° (E) 07:01:19 437.445
UWE-3 22 Jan 06:54:30 06:58:45 34° 96° (E) 07:02:55 435.000/436.395/437.385
LilacSat-2 22 Jan 06:55:14 06:58:05 21° 293° (WNW) 07:00:55 437.200
XW-2C 22 Jan 06:55:27 06:58:23 22° 292° (WNW) 07:01:17 145.795 - 145.815
FALCONSAT 3 22 Jan 07:05:00 07:07:04 14° 197° (SSW) 07:09:08 435.103
UNISAT 6 22 Jan 07:11:26 07:12:33 11° 58° (ENE) 07:13:40 437.425
ZACube-1 22 Jan 07:14:59 07:18:57 29° 95° (E) 07:22:49 437.345
RS-15 22 Jan 07:20:16 07:32:11 59° 114° (ESE) 07:43:56 29.354- 29.394
STRAND 1 22 Jan 07:20:44 07:25:10 30° 264° (W) 07:29:39 437.568
AO-73 22 Jan 07:20:49 07:24:46 29° 95° (E) 07:28:37 145.935
AAUSAT CUBESAT 2 22 Jan 07:22:06 07:26:03 45° 99° (E) 07:29:58 437.432
KAITUO 1B 22 Jan 07:26:42 07:28:40 14° 296° (WNW) 07:30:38 145.475/437.950
XW-2A 22 Jan 07:30:32 07:33:46 44° 99° (E) 07:36:58 145.665 - 145.685
XW-2F 22 Jan 07:32:52 07:32:57 10° 298° (WNW) 07:33:01 145.980 - 146.000
NUDT-PHONESAT 22 Jan 07:35:21 07:36:47 12° 297° (WNW) 07:38:13 437.300
SEEDS 22 Jan 07:45:17 07:49:12 40° 288° (WNW) 07:53:05 437.485
Oscar 11 22 Jan 07:52:14 07:56:15 37° 97° (E) 08:00:14 .
CUTE-I 22 Jan 07:54:49 07:58:10 17° 301° (WNW) 08:01:31 437.470
CUTE 1.7 + AOD 2 22 Jan 08:01:42 08:04:36 18° 295° (WNW) 08:07:30 437.475
YUBILEINY 22 Jan 08:04:53 08:11:17 22° 61° (ENE) 08:17:37 435.215
BEESAT 3 22 Jan 08:15:52 08:18:55 22° 113° (ESE) 08:22:00 437.485
FO-29 22 Jan 08:18:38 08:24:18 28° 265° (W) 08:29:29 435.910
HO-68 22 Jan 08:18:51 08:25:08 35° 299° (WNW) 08:31:26 435.675
TIGRISAT 22 Jan 08:28:24 08:32:44 56° 73° (ENE) 08:37:13 435.000
PRISM 22 Jan 08:29:14 08:31:24 14° 62° (ENE) 08:33:35 437.425
CUBEBUG 2 22 Jan 08:29:38 08:32:50 18° 297° (WNW) 08:36:02 437.445
UWE-3 22 Jan 08:31:08 08:35:03 27° 293° (WNW) 08:38:56 435.000/436.395/437.385
PCSat 22 Jan 08:42:02 08:46:55 36° 111° (ESE) 08:51:51 145.827
UNISAT 6 22 Jan 08:44:02 08:48:28 89° 65° (ENE) 08:53:04 437.425
O/OREOS (USA 219) 22 Jan 08:49:15 08:53:10 29° 57° (ENE) 08:57:03 437.305
ZACube-1 22 Jan 08:51:11 08:55:10 30° 292° (WNW) 08:59:04 437.345
AO-73 22 Jan 08:56:59 09:00:56 29° 292° (WNW) 09:04:47 145.935
AAUSAT CUBESAT 2 22 Jan 08:58:31 09:01:08 17° 296° (WNW) 09:03:44 437.432
XW-2A 22 Jan 09:04:57 09:06:02 11° 296° (WNW) 09:07:07 145.665 - 145.685
BEESAT 2 22 Jan 09:07:47 09:10:46 20° 113° (ESE) 09:13:47 435.950
DELFI C3 22 Jan 09:18:49 09:22:44 63° 101° (ESE) 09:26:36 145.870
Oscar 11 22 Jan 09:28:52 09:32:09 22° 294° (WNW) 09:35:26 .
RS-15 22 Jan 09:33:04 09:45:01 52° 318° (NW) 09:56:43 29.354- 29.394
Max Valier Satellite 22 Jan 09:38:04 09:41:47 72° 102° (ESE) 09:45:26 145.860
DUCHIFAT 1 22 Jan 09:47:11 09:48:38 12° 60° (ENE) 09:50:04 145.980
AIST 2D 22 Jan 09:47:37 09:50:55 39° 73° (ENE) 09:54:14 435.315
EO-79 22 Jan 09:49:13 09:51:48 16° 63° (ENE) 09:54:24 145.935-145.965
BEESAT 3 22 Jan 09:52:30 09:56:14 38° 311° (NW) 09:59:59 437.485
EO-88 22 Jan 09:52:57 09:56:35 70° 102° (ESE) 10:00:10 145.990 - 145.960
YUBILEINY 22 Jan 10:00:33 10:09:19 87° 264° (W) 10:18:00 435.215
PRISM 22 Jan 10:02:16 10:06:13 54° 259° (W) 10:10:13 437.425
TIGRISAT 22 Jan 10:07:16 10:09:48 15° 270° (W) 10:12:25 435.000
ESTCUBE 1 22 Jan 10:21:40 10:24:36 17° 91° (E) 10:27:31 437.505/2401.250
POLYITAN 1 22 Jan 10:23:09 10:26:59 34° 69° (ENE) 10:30:52 437.675
PCSat 22 Jan 10:25:17 10:30:17 37° 310° (NW) 10:35:20 145.827
O/OREOS (USA 219) 22 Jan 10:28:37 10:32:32 30° 255° (WSW) 10:36:27 437.305
NANOSAT C BR1 22 Jan 10:37:00 10:40:58 42° 71° (ENE) 10:45:00 145.865
BUGSAT 1 22 Jan 10:42:53 10:43:28 10° 59° (ENE) 10:44:04 437.445
BEESAT 2 22 Jan 10:44:24 10:48:13 41° 310° (NW) 10:52:05 435.950
QB50P2 22 Jan 10:52:34 10:56:47 82° 77° (ENE) 11:01:05 145.880/145.840
DELFI C3 22 Jan 10:55:32 10:56:56 12° 298° (WNW) 10:58:19 145.870
LO-87 22 Jan 11:06:50 11:10:28 69° 101° (ESE) 11:14:04 145.935 - 145.965
DUCHIFAT 1 22 Jan 11:19:28 11:23:39 75° 258° (WSW) 11:27:54 145.980
Oscar 19 22 Jan 11:22:32 11:26:29 23° 63° (ENE) 11:30:28 437.125/150
Gurwin Techsat 1B 22 Jan 11:22:35 11:26:03 18° 60° (ENE) 11:29:33 435.225
AIST 2D 22 Jan 11:22:37 11:24:16 13° 269° (W) 11:25:54 435.315
EO-79 22 Jan 11:23:01 11:27:08 51° 260° (W) 11:31:18 145.935-145.965
AO-85 22 Jan 11:32:10 11:36:08 84° 122° (ESE) 11:40:25 145.980
AO-7 22 Jan 11:32:57 11:35:21 11° 37° (NE) 11:37:45 .
SPROUT 22 Jan 11:33:23 11:36:49 23° 94° (E) 11:40:14 437.525
SO-50 22 Jan 11:36:58 11:39:44 15° 34° (NE) 11:42:30 436.795
VELOX 1 22 Jan 11:49:52 11:52:58 19° 93° (E) 11:56:04 145.980
RS-15 22 Jan 11:51:13 12:01:11 28° 350° (N) 12:10:52 29.354- 29.394
ESTCUBE 1 22 Jan 11:57:21 12:01:40 49° 288° (WNW) 12:05:58 437.505/2401.250
YUBILEINY 22 Jan 11:59:27 12:04:45 18° 284° (WNW) 12:10:03 435.215
POLYITAN 1 22 Jan 11:59:33 12:02:50 22° 266° (W) 12:06:10 437.675
AO-91 22 Jan 12:06:14 12:09:26 43° 72° (ENE) 12:12:48 145.960
NANOSAT C BR1 22 Jan 12:14:02 12:16:52 17° 268° (W) 12:19:45 145.865
BUGSAT 1 22 Jan 12:14:03 12:18:08 82° 256° (WSW) 12:22:18 437.445
Gurwin Techsat 1B 22 Jan 13:00:10 13:05:26 69° 258° (WSW) 13:10:46 435.225
Oscar 19 22 Jan 13:00:24 13:05:26 51° 260° (W) 13:10:32 437.125/150
SPROUT 22 Jan 13:08:52 13:12:45 34° 290° (WNW) 13:16:37 437.525
AO-85 22 Jan 13:14:41 13:17:13 15° 325° (NW) 13:19:51 145.980
SO-50 22 Jan 13:16:15 13:20:58 75° 54° (NE) 13:25:44 436.795
AO-7 22 Jan 13:18:12 13:25:56 44° 60° (ENE) 13:33:42 .
UKube-1 22 Jan 13:20:45 13:23:57 20° 94° (E) 13:27:08 .
VELOX 1 22 Jan 13:25:26 13:29:36 43° 290° (WNW) 13:33:46 145.980
50 SAT 22 Jan 13:32:00 13:34:54 35° 99° (E) 13:37:47 437.505
DX 1 22 Jan 13:35:44 13:39:57 47° 100° (E) 13:44:08 434.975-435.025
AO-91 22 Jan 13:45:44 13:46:17 10° 271° (W) 13:46:50 145.960
MOZHAYETS 4 22 Jan 13:58:58 14:01:56 17° 91° (E) 14:04:53
M-CUBED/EXP-1 PRIME 22 Jan 14:06:24 14:07:11 10° 56° (NE) 14:07:57 437.505
RS-15 22 Jan 14:07:58 14:18:31 34° 25° (NNE) 14:28:33 29.354- 29.394
ITAMSAT 1 22 Jan 14:10:40 14:15:29 42° 68° (ENE) 14:20:20 435.822/435.867
BEESAT 22 Jan 14:23:33 14:26:38 17° 91° (E) 14:29:43 436.000
UKube-1 22 Jan 14:56:05 15:00:06 39° 290° (WNW) 15:04:05 .
SO-50 22 Jan 14:58:21 15:00:51 14° 251° (WSW) 15:03:24 436.795
50 SAT 22 Jan 15:05:07 15:06:15 12° 295° (WNW) 15:07:23 437.505
DOVE 4 22 Jan 15:08:17 15:12:03 32° 70° (ENE) 15:15:45 437.250
AO-7 22 Jan 15:10:40 15:18:37 47° 259° (W) 15:26:38 .
DX 1 22 Jan 15:12:50 15:15:45 18° 297° (WNW) 15:18:41 434.975-435.025
NO-84 22 Jan 15:13:17 15:14:58 14° 129° (SE) 15:16:37 435.350 FM
ITUPSAT 1 22 Jan 15:21:35 15:26:22 61° 102° (ESE) 15:31:07 437.325
MOZHAYETS 4 22 Jan 15:34:53 15:39:24 53° 288° (WNW) 15:43:52
M-CUBED/EXP-1 PRIME 22 Jan 15:36:43 15:41:02 88° 236° (WSW) 15:45:03 437.505
CUBESAT XI-V 22 Jan 15:42:51 15:47:20 49° 99° (E) 15:51:46 437.345
PCSat 22 Jan 15:47:22 15:48:16 10° 28° (NNE) 15:49:09 145.827
ITAMSAT 1 22 Jan 15:50:50 15:55:05 26° 265° (W) 15:59:22 435.822/435.867
CUTE-I 22 Jan 15:58:38 16:02:22 20° 61° (ENE) 16:06:06 437.470
BEESAT 22 Jan 16:00:03 16:04:45 56° 288° (WNW) 16:09:25 436.000
XW-2C 22 Jan 16:03:59 16:06:32 17° 66° (ENE) 16:09:06 145.795 - 145.815
LilacSat-2 22 Jan 16:04:03 16:06:48 19° 67° (ENE) 16:09:33 437.200
RS-15 22 Jan 16:21:13 16:33:06 80° 54° (NE) 16:44:16 29.354- 29.394
BEESAT 3 22 Jan 16:30:30 16:33:38 22° 43° (NE) 16:36:43 437.485
KAITUO 1B 22 Jan 16:32:34 16:35:39 25° 69° (ENE) 16:38:45 145.475/437.950
XW-2F 22 Jan 16:37:16 16:40:47 37° 72° (ENE) 16:44:18 145.980 - 146.000
NUDT-PHONESAT 22 Jan 16:39:45 16:42:57 28° 70° (ENE) 16:46:11 437.300
DOVE 4 22 Jan 16:46:29 16:49:48 22° 266° (W) 16:53:04 437.250
XW-2D 22 Jan 16:48:26 16:52:11 57° 74° (ENE) 16:55:57 145.860 - 145.880
NO-84 22 Jan 16:48:48 16:51:51 56° 324° (NW) 16:54:44 435.350 FM
KKS-1 22 Jan 16:49:51 16:53:56 34° 98° (E) 16:58:00 437.445
ITUPSAT 1 22 Jan 17:00:35 17:03:42 17° 299° (WNW) 17:06:48 437.325
HO-68 22 Jan 17:00:38 17:07:17 43° 64° (ENE) 17:13:56 435.675
STARS 22 Jan 17:00:52 17:03:56 18° 93° (E) 17:07:00 437.465
SEEDS 22 Jan 17:03:47 17:06:18 16° 64° (ENE) 17:08:47 437.485
XW-2B 22 Jan 17:06:02 17:09:52 90° 70° (ENE) 17:13:42 145.730 - 145.750
CUTE 1.7 + AOD 2 22 Jan 17:18:39 17:22:32 35° 70° (ENE) 17:26:25 437.475
CUBESAT XI-V 22 Jan 17:21:06 17:24:20 19° 296° (WNW) 17:27:33 437.345
BEESAT 2 22 Jan 17:23:16 17:26:26 22° 43° (NE) 17:29:35 435.950
PCSat 22 Jan 17:28:05 17:33:13 40° 51° (NE) 17:38:18 145.827
CUTE-I 22 Jan 17:36:41 17:41:55 62° 258° (WSW) 17:47:12 437.470
XW-2C 22 Jan 17:36:52 17:40:26 36° 262° (W) 17:44:00 145.795 - 145.815
LilacSat-2 22 Jan 17:37:19 17:40:50 34° 263° (W) 17:44:22 437.200
CUBEBUG 2 22 Jan 17:50:55 17:55:11 51° 73° (ENE) 17:59:38 437.445
UWE-3 22 Jan 17:52:27 17:56:22 31° 68° (ENE) 18:00:24 435.000/436.395/437.385
XW-2A 22 Jan 18:03:01 18:05:29 19° 68° (ENE) 18:07:57 145.665 - 145.685
KAITUO 1B 22 Jan 18:06:29 18:09:33 23° 265° (W) 18:12:37 145.475/437.950
BEESAT 3 22 Jan 18:07:37 18:11:18 41° 242° (WSW) 18:14:55 437.485
ZACube-1 22 Jan 18:11:45 18:15:29 27° 67° (ENE) 18:19:18 437.345
XW-2F 22 Jan 18:12:34 18:15:00 16° 268° (W) 18:17:27 145.980 - 146.000
AAUSAT CUBESAT 2 22 Jan 18:13:06 18:16:50 34° 71° (ENE) 18:20:35 437.432
NUDT-PHONESAT 22 Jan 18:13:56 18:16:47 21° 266° (W) 18:19:38 437.300
AO-73 22 Jan 18:17:14 18:20:58 27° 67° (ENE) 18:24:46 145.935
AO-85 22 Jan 18:21:37 18:25:11 20° 39° (NE) 18:28:56 145.980
XW-2D 22 Jan 18:25:43 18:26:41 11° 270° (W) 18:27:40 145.860 - 145.880
KKS-1 22 Jan 18:26:42 18:30:19 25° 294° (WNW) 18:33:55 437.445
NO-84 22 Jan 18:28:01 18:29:30 13° 343° (NNW) 18:30:57 435.350 FM
nSIGHT-1 22 Jan 18:33:23 18:34:55 13° 132° (SE) 18:36:28 .
RS-15 22 Jan 18:34:54 18:44:11 30° 257° (WSW) 18:53:09 29.354- 29.394
STARS 22 Jan 18:36:15 18:40:28 45° 289° (WNW) 18:44:40 437.465
SEEDS 22 Jan 18:37:27 18:41:33 52° 260° (W) 18:45:40 437.485
Oscar 11 22 Jan 18:48:01 18:51:56 34° 69° (ENE) 18:55:51 .
HO-68 22 Jan 18:48:25 18:55:01 40° 262° (W) 19:01:41 435.675
ISS 22 Jan 18:54:36 18:56:30 15° 133° (SE) 18:58:23 437.550
CUTE 1.7 + AOD 2 22 Jan 18:55:09 18:58:26 21° 267° (W) 19:01:44 437.475
BEESAT 2 22 Jan 19:00:31 19:04:20 43° 242° (WSW) 19:08:05 435.950
PCSat 22 Jan 19:11:42 19:16:30 33° 250° (WSW) 19:21:16 145.827
FO-29 22 Jan 19:25:24 19:30:03 32° 96° (E) 19:34:46 435.910
STRAND 1 22 Jan 19:28:50 19:34:00 83° 104° (ESE) 19:39:09 437.568
UWE-3 22 Jan 19:28:59 19:32:47 27° 266° (W) 19:36:42 435.000/436.395/437.385
CUBEBUG 2 22 Jan 19:29:21 19:32:08 16° 270° (W) 19:34:59 437.445
XW-2A 22 Jan 19:35:07 19:38:00 25° 264° (W) 19:40:55 145.665 - 145.685
ZACube-1 22 Jan 19:47:37 19:51:37 32° 264° (W) 19:55:44 437.345
AAUSAT CUBESAT 2 22 Jan 19:49:17 19:52:22 20° 267° (W) 19:55:28 437.432
AO-73 22 Jan 19:53:03 19:57:03 32° 264° (W) 20:01:09 145.935
AO-85 22 Jan 20:01:11 20:06:10 82° 235° (SW) 20:11:25 145.980
DELFI C3 22 Jan 20:04:53 20:08:32 40° 72° (ENE) 20:12:13 145.870
nSIGHT-1 22 Jan 20:07:31 20:10:40 81° 326° (NNW) 20:13:50 .
Max Valier Satellite 22 Jan 20:17:40 20:21:06 36° 72° (ENE) 20:24:33 145.860
TIGRISAT 22 Jan 20:20:35 20:22:13 12° 88° (E) 20:23:52 435.000
Oscar 11 22 Jan 20:24:36 20:28:06 23° 266° (W) 20:31:37 .
ISS 22 Jan 20:29:20 20:32:35 76° 330° (NNW) 20:35:51 437.550
EO-88 22 Jan 20:31:23 20:34:42 34° 71° (ENE) 20:38:02 145.990 - 145.960
UNISAT 6 22 Jan 20:35:06 20:38:23 18° 91° (E) 20:41:38 437.425
